Hourly Data Report for November 15, 2004

SHERBROOKE A
QUEBEC

45°26'00.000" N
71°41'00.000" W
241.40 m
7028124
71610
YSC

Download Data

Hourly Data (November 2004)
Hourly Data Report for November 15, 2004
TIME
LST
Temp Definition
°C
Dew Point Definition
°C
Rel Hum Definition
%
Precip. Amount Definition
mm

Wind Dir Definition
10's deg

Wind Spd Definition
km/h
Visibility Definition
km
Stn Press Definition
kPa
Hmdx Definition


Wind Chill Definition


Weather Definition


00:00 -5.8 -7.1 91     0 15.0 100.31      
01:00 -7.7 -9.3 88     0 15.0 100.28      
02:00 -7.1 -8.6 89     0 15.0 100.28      
03:00 -8.1 -9.7 88     0 15.0 100.23      
04:00 -8.7 -10.3 88   10 4 15.0 100.22   -11  
05:00 -8.5 -10.2 87   9 4 15.0 100.18   -11  
06:00 -9.0 -11.1 85     0 15.0 100.22      
07:00 -9.5 -11.3 87   12 4 15.0 100.23   -12  
08:00 -6.2 -8.0 87   11 4 19.3 100.29   -8 Mainly Clear
09:00 -2.4 -4.2 87   29 4 19.3 100.26   -4 Mainly Clear
10:00 1.5 -1.1 83   23 7 24.1 100.21     Mainly Clear
11:00 3.7 -0.3 75   26 15 24.1 100.09     Mainly Clear
12:00 5.2 -0.6 66   28 11 24.1 99.99     Mainly Clear
13:00 5.6 -0.9 63   30 13 24.1 99.95     Mainly Clear
14:00 6.6 -1.5 56   25 11 24.1 99.87     Mainly Clear
15:00 6.2 -2.6 53   26 17 24.1 99.82     Mostly Cloudy
16:00 4.9 -2.7 58   27 11 24.1 99.82     Mostly Cloudy
17:00 2.2 -3.6 65   30 9 24.1 99.86     Mostly Cloudy
18:00 2.5 -3.0 67   27 6 15.0 99.89      
19:00 0.1 -3.6 76   24 6 15.0 99.87      
20:00 0.6 -2.3 81   25 7 15.0 99.85      
21:00 0.0 -2.3 84   28 6 15.0 99.83   -2  
22:00 -3.2 -4.6 90   11 6 12.9 99.82   -6  
23:00 -4.3 -5.7 90   12 6 11.3 99.82   -7  

Notes on Data Quality.

Legend

  • E = Estimated
  • M = Missing
  • NA = Not Available*
  • [empty] = Indicates an unobserved value
Date modified: